STARLINK-32637, 62032

Orbit data source: Space-Track

STARLINK-32637, 62032 is a payload satellite owned by SpaceX/Seattle (US) in LEO that was launched on Thu, 21 Nov 2024 UTC via an FALCON 9 launch vehicle from the Air Force Eastern Test Range (AFETR). Payloads include a variety of satellites, spacecraft, and rockets equipped with specific instruments for various scientific and technological missions. These include communications satellites like Starlink; space stations such as the ISS; scientific satellites like the Hubble; Earth observation satellites from companies like Planet Labs, Umbra, and HawkEye 360; GPS; miniature CubeSats for education and research; and military/defense satellites.

Loading next visibility...
STARLINK-32637 details
Identifier
62032, 2024-216A
Orbit
LEO
Last TLE update10 hours ago
Origin
Flag of USSpaceX/Seattle (US)
ManufacturerSpaceX/Seattle
MissionOperational spacecraft
Bus & MotorSTARLINK V2M, Unknown motor
Mass730 kg wet, ~700 kg dry
Launch date (UTC)
2024-11-21 (1 month ago)
Launch vehicle
FALCON 9
Launch site
Air Force Eastern Test Range (AFETR)
Object type
Payload
Rocket body
Debris
Shape & HBRUnknown
Radar Cross SectionLarge (>1 m²)

Expand to show TLE details & history

TLE from 10 hours ago
0 STARLINK-32637
1 62032U 24216A   24361.04322595 -.00002496  00000-0 -52515-4 0  9999
2 62032  43.0015 234.9191 0001644 244.6063 115.4623 15.40690020  6451
Epoch: 2024-12-26T01:02Z
Definitive object data (Epoch: 2024-12-26T01:02:14.722Z)
Latitude-0.00003°
Longitude124.32944°
Altitude444.328 km
Speed7.647 km/s
True Right ascension15h 39m 40s
True Declination0° 00' 00"
Sunlit
Object was in daylight at TLE epoch
Visualization TLE readout
Latitude41.60035°
Longitude-129.24188°
Altitude447.778 km
Speed7.649 km/s
Apparent Right ascension22h 28m 20s
Apparent Declination2° 31' 05"
Sunlit
Object is in daylight
Visualization observer readout
Local Sidereal Time10:10:33
Azimuth353.432° N
Elevation-47.37°
Doppler factor1
Orbital elements
Apogee altitude447.149 km
Perigee altitude444.906 km
Semi-major axis6,824.165 km
Eccentricity0.0001644
Inclination43.0015°
RAAN234.9191°
Arg. of periapsis244.6063°
True anomaly115.47931°
Mean anomaly115.4623°
Eccentric anomaly115.4708°
Mean motion3.85007 °/min
BSTAR-0.000052515
Orbital period93.5 mins
Loading maneuver chart data...
Loading historical data...
Loading historical data...
Loading historical data...
Loading historical data...
Loading historical data...
Loading historical data...
Loading historical data...

STARLINK-32637 Visibility forecast

Observer location: undefined°, undefined

Span
Click to sort rows by Start time (UTC) header in descending order
Start Az.
Max El. time (UTC)
Max El. Az.
Max El.
End time (UTC)
End Az.
4 mins2024-12-26 18:20:18.518Z182.283° SSW2024-12-26 18:22:18.518Z144.575° SSE16.533°2024-12-26 18:24:18.518Z106.443° ESE
5 mins2024-12-26 19:58:18.518Z241.961° WSW2024-12-26 20:00:18.518Z106.467° ESE43.362°2024-12-26 20:03:18.518Z73.444° E
5 mins2024-12-26 21:36:18.518Z289.57° WNW2024-12-26 21:38:18.518Z1.543° NNE37.43°2024-12-26 21:41:18.518Z72.203° E
5 mins2024-12-26 23:14:18.518Z292.846° NW2024-12-26 23:16:18.518Z340.21° N42.717°2024-12-26 23:19:18.518Z97.838° ESE
4 mins2024-12-27 00:53:18.518Z246.936° WSW2024-12-27 00:54:18.518Z216.125° SW27.028°2024-12-27 00:57:18.518Z149.467° SSE
|